• In Germany
  • List of Countries
  • For 7 days
  • Water Temperature
  • Satellite Maps
  • Weather Map
  • Weather Widgets
  • user-avatar
    Login

    Hourly Weather Kyrdzhali

    Today, 26 September, Tuesday

    Time Temperature Precipitation Wind Pressure Humidity
    00:00 +17°C° 1.2 mm 4 mps 728 mmHg 84%
    01:00 +17°C° 1.2 mm 4 mps 728 mmHg 85%
    02:00 +17°C° 1.2 mm 4 mps 727 mmHg 86%
    03:00 +15°C° 1.2 mm 4 mps 727 mmHg 86%
    04:00 +15°C° 1.2 mm 4 mps 727 mmHg 86%
    05:00 +15°C° 1.2 mm 4 mps 727 mmHg 86%
    06:00 +15°C° 1 mm 4 mps 727 mmHg 86%
    07:00 +15°C° 1 mm 4 mps 727 mmHg 85%
    08:00 +15°C° 1 mm 4 mps 727 mmHg 85%
    09:00 +15°C° 1.2 mm 4 mps 727 mmHg 84%
    10:00 +17°C° 1.2 mm 3 mps 728 mmHg 83%
    11:00 +17°C° 1.2 mm 3 mps 728 mmHg 82%
    12:00 +18°C° 1.9 mm 3 mps 728 mmHg 80%
    13:00 +19°C° 1.9 mm 3 mps 728 mmHg 78%
    14:00 +19°C° 1.9 mm 3 mps 727 mmHg 76%
    15:00 +19°C° 2.6 mm 3 mps 727 mmHg 78%
    16:00 +19°C° 2.6 mm 3 mps 727 mmHg 81%
    17:00 +18°C° 2.6 mm 3 mps 727 mmHg 83%
    18:00 +18°C° 1.6 mm 3 mps 728 mmHg 85%
    19:00 +17°C° 1.6 mm 3 mps 728 mmHg 86%
    20:00 +17°C° 1.6 mm 3 mps 728 mmHg 88%
    21:00 +16°C° 0.8 mm 3 mps 728 mmHg 89%
    22:00 +16°C° 0.8 mm 3 mps 729 mmHg 90%
    23:00 +16°C° 0.8 mm 2 mps 729 mmHg 91%

    Tomorrow, 27 September, Wednesday

    Time Temperature Precipitation Wind Pressure Humidity
    00:00 +16°C° 0.3 mm 3 mps 729 mmHg 91%
    01:00 +16°C° 0.3 mm 3 mps 729 mmHg 91%
    02:00 +16°C° 0.3 mm 3 mps 729 mmHg 91%
    03:00 +16°C° 0.1 mm 3 mps 729 mmHg 90%
    04:00 +14°C° 0.1 mm 3 mps 729 mmHg 90%
    05:00 +14°C° 0.1 mm 3 mps 729 mmHg 90%
    06:00 +14°C° 0.1 mm 3 mps 730 mmHg 89%
    07:00 +14°C° 0.1 mm 3 mps 730 mmHg 87%
    08:00 +16°C° 0.1 mm 3 mps 730 mmHg 86%
    09:00 +16°C° 0.1 mm 3 mps 731 mmHg 85%
    10:00 +15°C° 0.1 mm 4 mps 731 mmHg 84%
    11:00 +15°C° 0.1 mm 4 mps 731 mmHg 83%
    12:00 +15°C° 0.2 mm 4 mps 731 mmHg 82%
    13:00 +15°C° 0.2 mm 4 mps 731 mmHg 82%
    14:00 +15°C° 0.2 mm 4 mps 731 mmHg 81%
    15:00 +15°C° 0.2 mm 4 mps 731 mmHg 82%
    16:00 +14°C° 0.2 mm 4 mps 732 mmHg 82%
    17:00 +14°C° 0.2 mm 5 mps 732 mmHg 83%
    18:00 +14°C° 0.2 mm 4 mps 732 mmHg 84%
    19:00 +14°C° 0.2 mm 4 mps 732 mmHg 85%
    20:00 +13°C° 0.2 mm 4 mps 733 mmHg 86%
    21:00 +13°C° 0.1 mm 4 mps 733 mmHg 86%
    22:00 +13°C° 0.1 mm 4 mps 733 mmHg 86%
    23:00 +13°C° 0.1 mm 4 mps 733 mmHg 86%

    Day after tomorrow, 28 September, Thursday

    Time Temperature Precipitation Wind Pressure Humidity
    00:00 +12°C° 0 mm 3 mps 733 mmHg 86%
    01:00 +12°C° 0 mm 3 mps 733 mmHg 86%
    02:00 +12°C° 0 mm 3 mps 733 mmHg 86%
    03:00 +12°C° 0 mm 3 mps 733 mmHg 86%
    04:00 +11°C° 0 mm 3 mps 733 mmHg 86%
    05:00 +11°C° 0 mm 3 mps 733 mmHg 85%
    06:00 +12°C° 0 mm 4 mps 733 mmHg 83%
    07:00 +12°C° 0 mm 4 mps 733 mmHg 80%
    08:00 +12°C° 0 mm 4 mps 733 mmHg 77%
    09:00 +13°C° 0 mm 5 mps 734 mmHg 72%
    10:00 +14°C° 0 mm 5 mps 734 mmHg 67%
    11:00 +15°C° 0 mm 6 mps 734 mmHg 62%
    12:00 +16°C° 0 mm 6 mps 734 mmHg 61%
    13:00 +16°C° 0 mm 6 mps 733 mmHg 59%
    14:00 +16°C° 0 mm 6 mps 733 mmHg 58%
    15:00 +16°C° 0 mm 6 mps 733 mmHg 60%
    16:00 +15°C° 0 mm 6 mps 733 mmHg 62%
    17:00 +15°C° 0 mm 6 mps 733 mmHg 63%
    18:00 +14°C° 0 mm 5 mps 733 mmHg 67%
    19:00 +13°C° 0 mm 5 mps 733 mmHg 70%
    20:00 +12°C° 0 mm 5 mps 733 mmHg 74%
    21:00 +12°C° 0 mm 5 mps 733 mmHg 75%
    22:00 +11°C° 0 mm 4 mps 733 mmHg 77%
    23:00 +11°C° 0 mm 4 mps 733 mmHg 79%

    29 September, Friday

    Time Temperature Precipitation Wind Pressure Humidity
    00:00 +11°C° 0 mm 4 mps 733 mmHg 79%
    01:00 +11°C° 0 mm 4 mps 733 mmHg 79%
    02:00 +10°C° 0 mm 4 mps 733 mmHg 79%
    03:00 +10°C° 0 mm 4 mps 733 mmHg 78%
    04:00 +10°C° 0 mm 4 mps 733 mmHg 77%
    05:00 +10°C° 0 mm 4 mps 732 mmHg 76%
    06:00 +9°C° 0 mm 5 mps 732 mmHg 74%
    07:00 +10°C° 0 mm 5 mps 733 mmHg 72%
    08:00 +10°C° 0 mm 5 mps 733 mmHg 70%
    09:00 +11°C° 0 mm 6 mps 733 mmHg 66%
    10:00 +13°C° 0 mm 6 mps 733 mmHg 61%
    11:00 +14°C° 0 mm 6 mps 733 mmHg 57%
    12:00 +14°C° 0 mm 6 mps 732 mmHg 57%
    13:00 +15°C° 0 mm 6 mps 732 mmHg 56%
    14:00 +15°C° 0 mm 6 mps 732 mmHg 55%
    15:00 +14°C° 0 mm 6 mps 731 mmHg 56%
    16:00 +14°C° 0 mm 6 mps 731 mmHg 57%
    17:00 +14°C° 0 mm 6 mps 731 mmHg 58%
    18:00 +13°C° 0 mm 5 mps 731 mmHg 60%
    19:00 +12°C° 0 mm 5 mps 731 mmHg 63%
    20:00 +12°C° 0 mm 4 mps 732 mmHg 66%
    21:00 +11°C° 0 mm 4 mps 731 mmHg 67%
    22:00 +10°C° 0 mm 4 mps 731 mmHg 68%
    23:00 +10°C° 0 mm 4 mps 731 mmHg 69%

    30 September, Saturday

    Time Temperature Precipitation Wind Pressure Humidity
    00:00 +8°C° 0 mm 4 mps 731 mmHg 70%
    01:00 +8°C° 0 mm 4 mps 731 mmHg 72%
    02:00 +8°C° 0 mm 3 mps 731 mmHg 73%
    03:00 +8°C° 0 mm 3 mps 730 mmHg 74%
    04:00 +8°C° 0 mm 3 mps 730 mmHg 75%
    05:00 +7°C° 0 mm 3 mps 730 mmHg 76%
    06:00 +7°C° 0 mm 4 mps 730 mmHg 70%
    07:00 +8°C° 0 mm 4 mps 730 mmHg 65%
    08:00 +10°C° 0 mm 4 mps 731 mmHg 60%
    09:00 +11°C° 0 mm 4 mps 730 mmHg 55%
    10:00 +13°C° 0 mm 4 mps 730 mmHg 49%
    11:00 +14°C° 0 mm 4 mps 730 mmHg 44%
    12:00 +15°C° 0 mm 4 mps 730 mmHg 42%
    13:00 +17°C° 0 mm 4 mps 730 mmHg 40%
    14:00 +18°C° 0 mm 4 mps 729 mmHg 38%
    15:00 +17°C° 0 mm 4 mps 729 mmHg 39%
    16:00 +17°C° 0 mm 3 mps 729 mmHg 40%
    17:00 +16°C° 0 mm 3 mps 729 mmHg 41%
    18:00 +14°C° 0 mm 3 mps 729 mmHg 44%
    19:00 +12°C° 0 mm 3 mps 729 mmHg 47%
    20:00 +12°C° 0 mm 2 mps 729 mmHg 51%
    21:00 +10°C° 0 mm 2 mps 729 mmHg 52%
    22:00 +10°C° 0 mm 2 mps 729 mmHg 54%
    23:00 +9°C° 0 mm 2 mps 729 mmHg 56%

    1 October, Sunday

    Time Temperature Precipitation Wind Pressure Humidity
    00:00 +9°C° 0 mm 2 mps 729 mmHg 56%
    01:00 +8°C° 0 mm 2 mps 729 mmHg 57%
    02:00 +8°C° 0 mm 2 mps 729 mmHg 57%
    03:00 +8°C° 0 mm 2 mps 729 mmHg 58%
    04:00 +7°C° 0 mm 2 mps 729 mmHg 58%
    05:00 +7°C° 0 mm 2 mps 729 mmHg 58%
    06:00 +8°C° 0 mm 2 mps 729 mmHg 55%
    07:00 +9°C° 0 mm 2 mps 729 mmHg 53%
    08:00 +10°C° 0 mm 2 mps 730 mmHg 50%
    09:00 +13°C° 0 mm 2 mps 730 mmHg 45%
    10:00 +14°C° 0 mm 3 mps 730 mmHg 41%
    11:00 +16°C° 0 mm 3 mps 730 mmHg 36%
    12:00 +17°C° 0 mm 3 mps 730 mmHg 34%
    13:00 +17°C° 0 mm 3 mps 729 mmHg 33%
    14:00 +18°C° 0 mm 3 mps 729 mmHg 31%
    15:00 +17°C° 0 mm 2 mps 729 mmHg 33%
    16:00 +17°C° 0 mm 2 mps 729 mmHg 36%
    17:00 +16°C° 0 mm 1 mps 729 mmHg 38%
    18:00 +15°C° 0 mm 1 mps 729 mmHg 39%
    19:00 +14°C° 0 mm 1 mps 729 mmHg 41%
    20:00 +12°C° 0 mm 1 mps 729 mmHg 43%
    21:00 +12°C° 0 mm 1 mps 729 mmHg 44%
    22:00 +11°C° 0 mm 1 mps 730 mmHg 45%
    23:00 +11°C° 0 mm 1 mps 730 mmHg 46%
    Show more